Location: Newark
(45.2500°N, 7.5833°E)
Time: 19:41:22
(UTC+00:00)

N. Korean satellite - Pass Details

Date: 18 December 2019
Orbit: 454 x 507 km, 97.2° (Epoch: 28 January)

Event Time Altitude Azimuth Distance (km) Brightness Sun altitude
Rises 16:53:46 0° 183° (S) 2,589 10.6 -11.0°
Reaches altitude 10° 16:55:56 10° 190° (S) 1,705 9.8 -11.3°
Maximum altitude 16:59:25 40° 262° (W) 742 8.1 -11.9°
Drops below altitude 10° 17:02:53 10° 333° (NNW) 1,696 9.4 -12.5°
Sets 17:05:03 0° 341° (NNW) 2,574 10.2 -12.8°
